Flag for U.S.A. Weather past 2 weeks in Bakersfield, California, U.S.A.

Now
71 °F

Clear.


Feels Like: 77 °F
Forecast: 70 / 97 °F
Wind: 6 mph from Southeast

Location: Meadows Field

Current Time: Aug 30, 2014 at 7:33:40 AM

Latest Report: Aug 30, 2014 at 6:54 AM


Visibility: 10 mi

Pressure: 29.86 "Hg

Humidity: 47%

Dew point: 50 °F

Location of BakersfieldLocation

Historic Weather in Bakersfield — Graph

°F

Bakersfield temperature yesterday

Maximum temperature yesterday: 99 °F (at 4:54 PM)
Minimum temperature yesterday: 72 °F (at 4:54 AM)
Average temperature yesterday: 85 °F

Past Weeks' High & Low Weather Summary

 TemperatureHumidityPressure
High103 °F (Aug 28, 2:54 PM)51% (Aug 25, 6:54 AM)30.03 "Hg (Aug 25, 6:54 AM)
Low66 °F (Aug 26, 4:54 AM)9% (Aug 15, 3:54 PM)29.68 "Hg (Aug 18, 6:54 PM)
Average83 °F27%29.85 "Hg
* Reported Aug 15 5:54 AM — Aug 30 5:54 AM, Bakersfield, Weather by CustomWeather, © 2014

Note: Actual official high and low records may vary slightly from our data, if they occured in-between our weather recording intervals... More about our weather records

Advertising

Bakersfield weather history for previous 24 hours

 ConditionsComfort  
Time TempWeatherWind HumidityBarometerVisibility
5:54 AM
Aug 30
71 °FClear.5 mph45%29.85 "Hg10 mi
4:54 AM71 °FClear.6 mph49%29.84 "Hg10 mi
3:54 AM71 °FClear.No wind44%29.84 "Hg9 mi
2:54 AM73 °FClear.6 mph41%29.83 "Hg10 mi
1:54 AM76 °FClear.3 mph35%29.83 "Hg10 mi
12:54 AM78 °FClear.No wind27%29.83 "Hg10 mi
11:54 PM
Aug 29
81 °FClear.3 mph26%29.83 "Hg10 mi
10:54 PM84 °FClear.6 mph25%29.82 "Hg10 mi
9:54 PM86 °FClear.6 mph22%29.84 "Hg10 mi
8:54 PM88 °FClear.5 mph22%29.80 "Hg10 mi
7:54 PM90 °FSunny.6 mph19%29.78 "Hg10 mi
6:54 PM96 °FSunny.7 mph15%29.77 "Hg10 mi
5:54 PM97 °FSunny.13 mph16%29.77 "Hg10 mi
4:54 PM99 °FSunny.9 mph12%29.78 "Hg10 mi
3:54 PM98 °FSunny.13 mph16%29.78 "Hg10 mi
2:54 PM97 °FSunny.9 mph18%29.80 "Hg10 mi
1:54 PM95 °FSunny.7 mph19%29.82 "Hg10 mi
11:54 AM89 °FSunny.5 mph23%29.85 "Hg10 mi
10:54 AM82 °FSunny.5 mph28%29.88 "Hg10 mi
8:54 AM79 °FSunny.7 mph29%29.90 "Hg10 mi
7:54 AM75 °FSunny.5 mph31%29.89 "Hg10 mi
Weather by CustomWeather, © 2014

See weather overviewHow to use our weather pages